Regional Weather Roundup
Issued by NWS Albany, NY

Home | Current Version | Previous Version | Graphics & Text | Print | Product List | Glossary On
Versions: 1 2 3 4 5 6 7 8 9 10 11 12 13 14 15 16 17 18 19 20 21 22 23 24 25 26 27 28 29 30 31 32 33 34 35 36 37 38 39 40 41 42 43 44 45 46 47 48 49 50
000
ASUS41 KALY 020510
RWRALY

NEW YORK STATE HOURLY WEATHER ROUNDUP
NATIONAL WEATHER SERVICE ALBANY NY
100 AM EDT MON MAY 02 2016

NOTE: "FAIR" INDICATES FEW OR NO CLOUDS BELOW 12,000 FEET WITH NO
SIGNIFICANT WEATHER AND/OR NO OBSTRUCTIONS TO VISIBILITY.

NYZ032-033-038>043-046>054-057>066-NYZ062>081-082-084-020600-
EAST


CITY           SKY/WX    TMP DP  RH WIND       PRES   REMARKS
ALBANY         CLOUDY    44  38  79 S5        30.05S
GLENS FALLS    CLOUDY    44  39  82 S3        30.05F
POUGHKEEPSIE   CLOUDY    45  41  86 CALM      30.08R
NEWBURGH       CLOUDY    43  43 100 SE6       30.07F
MONTGOMERY     CLOUDY    44  42  93 CALM      30.07S
WHITE PLAINS   DRIZZLE   43  41  93 CALM      30.06F FOG
ISLIP          CLOUDY    46  44  93 N7        30.06S FOG
NEW YORK CITY  CLOUDY    46  43  89 NE6       30.07F FOG
CENTRAL PARK   CLOUDY    46  43  89 E6        30.09F FOG
$$

NYZ005>009-017-018-044>046-055-056-020600-
CENTRAL


CITY           SKY/WX    TMP DP  RH WIND       PRES   REMARKS
FULTON         CLOUDY    49  46  90 CALM      29.97F
SYRACUSE       DRIZZLE   46  46 100 CALM      29.97S
ROME           LGT RAIN  44  44 100 E8        30.00F FOG
ELMIRA         CLOUDY    50  45  83 CALM      29.97F
BINGHAMTON     CLOUDY    45  44  97 S6        29.97F
MONTICELLO     CLOUDY    43  43 100 SE5       30.05S
$$

NYZ026>034-041>043-087-020600-
NORTH


CITY           SKY/WX    TMP DP  RH WIND       PRES   REMARKS
WATERTOWN      CLOUDY    45  44  97 E6        29.99F
FORT DRUM      NOT AVBL
MASSENA        CLOUDY    45  43  93 CALM      30.03F
SARANAC LAKE   CLOUDY    40  38  93 CALM      29.98F
PLATTSBURGH    CLOUDY    44  42  93 SE12      30.04F
$$

NYZ001>004-010>016-019>021-085-020600-
WEST


CITY           SKY/WX    TMP DP  RH WIND       PRES   REMARKS
NIAGARA FALLS  CLOUDY    46  43  89 NE9       29.99F
BUFFALO        CLOUDY    44  42  93 NE7       29.99F
DUNKIRK        CLOUDY    45  44  97 NE9       29.98F FOG
JAMESTOWN      CLOUDY    45  43  93 NE7       29.95F VSB<1/4
WELLSVILLE     CLOUDY    51  49  92 NE3       29.97S FOG
ROCHESTER      DRIZZLE   45  44  97 N7        30.01S FOG
PENN YAN       CLOUDY    51  49  92 CALM      29.98S FOG
$$

             KEY
       WCI = WIND CHILL INDEX
       VSB = VISIBILITY
       HX  = HEAT INDEX
$$



USA.gov is the U.S. government's official web portal to all federal, state and local government web resources and services.